Weather in Verhnyachka

Ukraine / Cherkassi District     48°49′34″N   30°02′14″E
temp.,
°C
wind,
m/s
gust,
m/s
humid.,
%
clouds,
%
prec.,
mm/h
press.,
hPa
HPBL,
m
20 april, tue
tue2000:00+7ene3677100 0.0 1014138
03:00+5ene33805 0.0 101249
06:00+5nne238186 0.0 101146
09:00+8n467699 0.0 1010375
12:00+10nne556396 0.4 10091173
15:00+12n555365 0.6 10081651
18:00+12n455285 0.1 1007869
21:00+8nnw36765 0.3 1009133
21 april, wed
wed2100:00+6wnw35825 0.0 101094
03:00+5wnw33845 0.0 101144
06:00+4w338780 0.0 101135
09:00+8w347475 0.0 1013350
12:00+12w466076 0.6 10131578
15:00+12wnw4657100 0.8 10131367
18:00+13w255795 0.1 10131277
21:00+10wsw2269100 0.1 101521
22 april, thu
thu2200:00+8ssw347454 0.1 101644
03:00+7sw367754 0.1 101695
06:00+6ssw368027 0.0 101791
09:00+11ssw576611 0.0 1017356
12:00+16ssw68515 0.1 10171640
15:00+18sw564082 0.1 10162503
18:00+16ssw575091 0.0 1015661
21:00+13s41062100 0.0 1016265
23 april, fri
fri2300:00+11s5117625 0.0 1016290
03:00+9sse3790100 0.5 1015179
06:00+8s37945 1.4 1015193
09:00+10wsw3483100 1.4 1015492
12:00+10nw4383100 0.1 1016641
15:00+7nnw7883100 0.3 1017537
18:00+4n6993100 0.3 1018488
21:00+6nnw368141 0.3 1019576
24 april, sat
sat2400:00+4w349297 0.0 1019103
03:00+3wnw37900 0.0 1019165
06:00+2wnw378421 0.0 1020153
09:00+6nw58705 0.0 1020694
12:00+8wnw584795 0.0 10201852
15:00+9w71041100 0.0 10202496
18:00+8wnw711516 0.1 10202275
21:00+4wnw35620 0.1 1021118